Location: Penton Mewsey
(51.2167°N, 1.5167°W)
Time: 06:21:53
(UTC+00:00)

Aureole 1 Rocket - Pass Details

Date: 30 March 2020
Orbit: 379 x 1379 km, 73.9° (Epoch: 29 May)

Event Time Altitude Azimuth Distance (km) Brightness Sun altitude
Exits shadow 20:59:03 30° 157° (SSE) 2,039 5.2 -21.2°
Maximum altitude 21:02:21 46° 105° (ESE) 1,501 4.5 -21.7°
Drops below altitude 10° 21:08:31 10° 35° (NE) 2,730 6.4 -22.4°
Sets 21:10:53 0° 30° (NNE) 3,537 7.1 -22.7°
